Cozumel, Mexico

9:10 PM EST on May 20, 2018 (GMT -0500)
Cozumel

Weather History for MMCZ - April, 2013

Change the Weather History Date:

Friday, April 5, 2013

  Actual Average Record
Temperature  
Mean Temperature 72 °F -  
Max Temperature 78 °F 85 °F 89 °F (1998)
Min Temperature 66 °F 73 °F 66 °F (2006)
Cooling Degree Days 7    
Growing Degree Days 22 (Base 50)    
Moisture  
Dew Point 64 °F    
Average Humidity 74    
Maximum Humidity 94    
Minimum Humidity 50    
Precipitation  
Precipitation 0.00 in - - ()
Sea Level Pressure  
Sea Level Pressure 30.00 in    
Wind  
Wind Speed 9 mph ()    
Max Wind Speed 17 mph    
Max Gust Speed 24 mph    
Visibility 7.1 miles    
Events      
Averages and records for this station are not official NWS values.
T = Trace of Precipitation, MM = Missing Value Source: Averaged Metar Reports

Daily Weather History Graph

Daily Weather History Graph

Search for Another Location

Airport or City:

Astronomy

Apr. 05, 2013 Rise Set
Actual Time 5:37 AM CST 6:03 PM CST
Civil Twilight 5:15 AM CST 6:25 PM CST
Nautical Twilight 4:49 AM CST 6:51 PM CST
Astronomical Twilight 4:22 AM CST 7:18 PM CST
Moon 2:08 AM CST (4/5) 1:59 PM CST (4/5)
Length of Visible Light 13h 10m
Length of Day
12h 26m
Waning Crescent, 23% of the Moon is Illuminated
Apr 5
Waning Crescent
Apr 10
New
Apr 18
First Quarter
Apr 25
Full
May 2
Last Quarter

Hourly Weather History & Observations

Time (CST) Temp. Dew Point Humidity Pressure Visibility Wind Dir Wind Speed Gust Speed Precip Events Conditions
12:45 AM 75.2 °F 69.8 °F 83% 29.91 in 7.0 mi SSW 3.5 mph - N/A   Mostly Cloudy
1:41 AM 71.6 °F 69.8 °F 94% 29.92 in 7.0 mi NW 10.4 mph - N/A   Mostly Cloudy
2:51 AM 73.4 °F 69.8 °F 88% 29.95 in 7.0 mi West 6.9 mph - N/A   Mostly Cloudy
3:49 AM 73.4 °F 69.8 °F 88% 29.93 in 7.0 mi WNW 13.8 mph - N/A   Scattered Clouds
4:54 AM 71.6 °F 66.2 °F 83% 29.95 in 7.0 mi West 8.1 mph - N/A   Scattered Clouds
5:59 AM 71.6 °F 66.2 °F 83% 29.96 in 7.0 mi West 6.9 mph - N/A   Overcast
6:50 AM 71.6 °F 68.0 °F 88% 29.97 in 7.0 mi WNW 11.5 mph - N/A   Overcast
7:42 AM 71.6 °F 68.0 °F 88% 29.99 in 7.0 mi NW 11.5 mph - N/A   Overcast
8:42 AM 73.4 °F 69.8 °F 88% 30.05 in 7.0 mi NNW 13.8 mph - N/A   Overcast
9:50 AM 75.2 °F 69.8 °F 83% 30.03 in 7.0 mi NNW 15.0 mph - N/A   Mostly Cloudy
10:48 AM 75.2 °F 68.0 °F 78% 30.03 in 6.0 mi NNW 16.1 mph - N/A   Overcast
11:40 AM 73.4 °F 66.2 °F 78% 30.01 in 7.0 mi NNW 12.7 mph 24.2 mph N/A   Overcast
12:44 PM 75.2 °F 64.4 °F 69% 30.02 in 7.0 mi North 15.0 mph - N/A   Mostly Cloudy
1:46 PM 78.8 °F 60.8 °F 54% 29.99 in 7.0 mi North 17.3 mph - N/A   Scattered Clouds
2:44 PM 78.8 °F 60.8 °F 54% 29.99 in 8.0 mi North 11.5 mph - N/A   Partly Cloudy
3:41 PM 78.8 °F 60.8 °F 54% 29.96 in 8.0 mi North 11.5 mph 23.0 mph N/A   Partly Cloudy
4:44 PM 77.0 °F 57.2 °F 50% 29.97 in 8.0 mi North 12.7 mph - N/A   Clear
5:50 PM 73.4 °F 59.0 °F 61% 29.94 in 8.0 mi North 11.5 mph - N/A   Clear
6:53 PM 69.8 °F 59.0 °F 68% 30.03 in 7.0 mi North 15.0 mph - N/A   Clear
7:45 PM 69.8 °F 59.0 °F 68% 30.06 in 7.0 mi NNW 15.0 mph - N/A   Clear
8:49 PM 68.0 °F 59.0 °F 73% 30.10 in 7.0 mi NNW 15.0 mph - N/A   Scattered Clouds
9:44 PM 66.2 °F 57.2 °F 73% 30.08 in 7.0 mi North 9.2 mph 20.7 mph N/A   Partly Cloudy
10:45 PM 66.2 °F 55.4 °F 68% 30.07 in 7.0 mi NNW 9.2 mph - N/A   Partly Cloudy
11:42 PM 66.2 °F 57.2 °F 73% 30.04 in 7.0 mi NNW 12.7 mph - N/A   Partly Cloudy